Hourly Weather Ryabeevo

Today, 20 April, Tuesday

Time Temperature Precipitation Wind Pressure Humidity
00:00 +3°C° 0 mm 3 mps 754 mmHg 63%
01:00 +3°C° 0 mm 3 mps 753 mmHg 64%
02:00 +2°C° 0 mm 3 mps 753 mmHg 64%
03:00 +2°C° 0 mm 3 mps 753 mmHg 66%
04:00 +1°C° 0 mm 3 mps 753 mmHg 68%
05:00 +1°C° 0 mm 3 mps 753 mmHg 70%
06:00 +1°C° 0 mm 4 mps 753 mmHg 69%
07:00 +3°C° 0 mm 4 mps 753 mmHg 67%
08:00 +3°C° 0 mm 4 mps 753 mmHg 65%
09:00 +5°C° 0 mm 5 mps 752 mmHg 62%
10:00 +6°C° 0 mm 5 mps 752 mmHg 58%
11:00 +7°C° 0 mm 5 mps 751 mmHg 54%
12:00 +7°C° 0 mm 5 mps 751 mmHg 59%
13:00 +6°C° 0 mm 5 mps 751 mmHg 64%
14:00 +5°C° 0 mm 6 mps 751 mmHg 70%
15:00 +5°C° 0.2 mm 5 mps 750 mmHg 78%
16:00 +3°C° 0.2 mm 5 mps 750 mmHg 86%
17:00 +3°C° 0.2 mm 4 mps 749 mmHg 93%
18:00 +3°C° 0.3 mm 4 mps 749 mmHg 94%
19:00 +3°C° 0.3 mm 4 mps 748 mmHg 95%
20:00 +3°C° 0.3 mm 3 mps 748 mmHg 96%
21:00 +3°C° 0.2 mm 3 mps 747 mmHg 96%
22:00 +3°C° 0.2 mm 3 mps 746 mmHg 96%
23:00 +2°C° 0.2 mm 3 mps 745 mmHg 96%

Tomorrow, 21 April, Wednesday

Time Temperature Precipitation Wind Pressure Humidity
00:00 +1°C° 0.6 mm 4 mps 744 mmHg 96%
01:00 +1°C° 0.6 mm 4 mps 743 mmHg 96%
02:00 +1°C° 0.6 mm 4 mps 742 mmHg 96%
03:00 0°C° 1.1 mm 4 mps 742 mmHg 96%
04:00 0°C° 1.1 mm 4 mps 741 mmHg 96%
05:00 -1°C° 1.1 mm 4 mps 740 mmHg 97%
06:00 -1°C° 0.7 mm 4 mps 739 mmHg 97%
07:00 -1°C° 0.7 mm 4 mps 738 mmHg 97%
08:00 0°C° 0.7 mm 3 mps 737 mmHg 98%
09:00 0°C° 1 mm 3 mps 737 mmHg 98%
10:00 0°C° 1 mm 3 mps 736 mmHg 98%
11:00 0°C° 1 mm 3 mps 736 mmHg 98%
12:00 +1°C° 0.3 mm 3 mps 736 mmHg 98%
13:00 +1°C° 0.3 mm 3 mps 737 mmHg 98%
14:00 +1°C° 0.3 mm 3 mps 737 mmHg 98%
15:00 +1°C° 0.1 mm 3 mps 737 mmHg 98%
16:00 +1°C° 0.1 mm 3 mps 738 mmHg 97%
17:00 0°C° 0.1 mm 4 mps 739 mmHg 96%
18:00 +1°C° 0.1 mm 3 mps 739 mmHg 97%
19:00 +1°C° 0.1 mm 3 mps 740 mmHg 97%
20:00 +1°C° 0.1 mm 3 mps 740 mmHg 97%
21:00 +1°C° 0.1 mm 3 mps 741 mmHg 97%
22:00 +1°C° 0.1 mm 3 mps 741 mmHg 97%
23:00 +1°C° 0.1 mm 3 mps 742 mmHg 97%

Day after tomorrow, 22 April, Thursday

Time Temperature Precipitation Wind Pressure Humidity
00:00 +1°C° 0 mm 3 mps 742 mmHg 97%
01:00 +3°C° 0 mm 2 mps 742 mmHg 98%
02:00 +3°C° 0 mm 2 mps 743 mmHg 98%
03:00 +3°C° 0 mm 2 mps 743 mmHg 97%
04:00 +2°C° 0 mm 2 mps 743 mmHg 96%
05:00 +2°C° 0 mm 2 mps 744 mmHg 95%
06:00 +2°C° 0 mm 3 mps 744 mmHg 90%
07:00 +4°C° 0 mm 3 mps 744 mmHg 85%
08:00 +5°C° 0 mm 3 mps 745 mmHg 81%
09:00 +8°C° 0 mm 3 mps 745 mmHg 74%
10:00 +8°C° 0 mm 4 mps 745 mmHg 68%
11:00 +11°C° 0 mm 4 mps 745 mmHg 62%
12:00 +11°C° 0 mm 4 mps 746 mmHg 59%
13:00 +12°C° 0 mm 4 mps 746 mmHg 57%
14:00 +12°C° 0 mm 4 mps 746 mmHg 54%
15:00 +12°C° 0.1 mm 4 mps 746 mmHg 59%
16:00 +11°C° 0.1 mm 4 mps 746 mmHg 65%
17:00 +11°C° 0.1 mm 4 mps 746 mmHg 70%
18:00 +9°C° 0 mm 3 mps 746 mmHg 77%
19:00 +8°C° 0 mm 3 mps 747 mmHg 84%
20:00 +6°C° 0 mm 2 mps 747 mmHg 90%
21:00 +5°C° 0 mm 3 mps 747 mmHg 90%
22:00 +5°C° 0 mm 3 mps 747 mmHg 89%
23:00 +5°C° 0 mm 3 mps 747 mmHg 89%

23 April, Friday

Time Temperature Precipitation Wind Pressure Humidity
00:00 +4°C° 0 mm 3 mps 747 mmHg 89%
01:00 +4°C° 0 mm 3 mps 746 mmHg 89%
02:00 +4°C° 0 mm 3 mps 746 mmHg 88%
03:00 +4°C° 0 mm 3 mps 746 mmHg 89%
04:00 +4°C° 0 mm 4 mps 746 mmHg 90%
05:00 +4°C° 0 mm 4 mps 746 mmHg 90%
06:00 +6°C° 0 mm 4 mps 746 mmHg 86%
07:00 +7°C° 0 mm 4 mps 745 mmHg 83%
08:00 +9°C° 0 mm 5 mps 745 mmHg 79%
09:00 +10°C° 0.1 mm 5 mps 745 mmHg 77%
10:00 +10°C° 0.1 mm 5 mps 745 mmHg 75%
11:00 +12°C° 0.1 mm 5 mps 745 mmHg 73%
12:00 +12°C° 0.1 mm 4 mps 745 mmHg 75%
13:00 +12°C° 0.1 mm 4 mps 745 mmHg 77%
14:00 +11°C° 0.1 mm 3 mps 745 mmHg 79%
15:00 +12°C° 0.2 mm 3 mps 744 mmHg 77%
16:00 +12°C° 0.2 mm 4 mps 744 mmHg 75%
17:00 +13°C° 0.2 mm 4 mps 743 mmHg 74%
18:00 +11°C° 2.3 mm 3 mps 743 mmHg 81%
19:00 +9°C° 2.3 mm 3 mps 744 mmHg 88%
20:00 +7°C° 2.3 mm 2 mps 744 mmHg 95%
21:00 +7°C° 0.3 mm 2 mps 744 mmHg 94%
22:00 +6°C° 0.3 mm 2 mps 744 mmHg 94%
23:00 +6°C° 0.3 mm 2 mps 744 mmHg 93%

24 April, Saturday

Time Temperature Precipitation Wind Pressure Humidity
00:00 +5°C° 0.8 mm 2 mps 743 mmHg 94%
01:00 +4°C° 0.8 mm 3 mps 743 mmHg 95%
02:00 +3°C° 0.8 mm 3 mps 743 mmHg 95%
03:00 +3°C° 1.3 mm 3 mps 743 mmHg 95%
04:00 +3°C° 1.3 mm 2 mps 743 mmHg 95%
05:00 +4°C° 1.3 mm 1 mps 743 mmHg 95%
06:00 +4°C° 0.3 mm 1 mps 742 mmHg 93%
07:00 +5°C° 0.3 mm 1 mps 742 mmHg 91%
08:00 +5°C° 0.3 mm 1 mps 742 mmHg 88%
09:00 +6°C° 0.3 mm 1 mps 742 mmHg 86%
10:00 +6°C° 0.3 mm 1 mps 742 mmHg 83%
11:00 +7°C° 0.3 mm 1 mps 742 mmHg 80%
12:00 +7°C° 0.2 mm 1 mps 742 mmHg 77%
13:00 +7°C° 0.2 mm 1 mps 742 mmHg 74%
14:00 +8°C° 0.2 mm 1 mps 741 mmHg 71%
15:00 +7°C° 0.3 mm 1 mps 741 mmHg 77%
16:00 +7°C° 0.3 mm 1 mps 741 mmHg 82%
17:00 +5°C° 0.3 mm 2 mps 741 mmHg 87%
18:00 +5°C° 0.4 mm 2 mps 741 mmHg 88%
19:00 +3°C° 0.4 mm 3 mps 741 mmHg 88%
20:00 +3°C° 0.4 mm 4 mps 741 mmHg 88%
21:00 +2°C° 0.1 mm 3 mps 740 mmHg 87%
22:00 +2°C° 0.1 mm 3 mps 740 mmHg 85%
23:00 +1°C° 0.1 mm 3 mps 740 mmHg 84%

25 April, Sunday

Time Temperature Precipitation Wind Pressure Humidity
00:00 +1°C° 0 mm 3 mps 740 mmHg 86%
01:00 0°C° 0 mm 3 mps 740 mmHg 87%
02:00 0°C° 0 mm 3 mps 740 mmHg 89%
03:00 -1°C° 0 mm 4 mps 739 mmHg 89%
04:00 -1°C° 0 mm 4 mps 739 mmHg 90%
05:00 -1°C° 0 mm 5 mps 739 mmHg 91%
06:00 -1°C° 0 mm 5 mps 739 mmHg 86%
07:00 0°C° 0 mm 5 mps 739 mmHg 81%
08:00 +1°C° 0 mm 5 mps 739 mmHg 77%
09:00 +1°C° 0 mm 6 mps 739 mmHg 72%
10:00 +2°C° 0 mm 6 mps 740 mmHg 67%
11:00 +3°C° 0 mm 6 mps 740 mmHg 63%
12:00 +3°C° 0.1 mm 6 mps 740 mmHg 58%
13:00 +4°C° 0.1 mm 6 mps 740 mmHg 54%
14:00 +5°C° 0.1 mm 5 mps 740 mmHg 49%
15:00 +5°C° 0.1 mm 5 mps 740 mmHg 51%
16:00 +4°C° 0.1 mm 4 mps 740 mmHg 52%
17:00 +4°C° 0.1 mm 4 mps 740 mmHg 54%
18:00 +3°C° 0 mm 3 mps 740 mmHg 60%
19:00 +1°C° 0 mm 3 mps 739 mmHg 65%
20:00 +1°C° 0 mm 2 mps 739 mmHg 71%
21:00 -1°C° 0 mm 2 mps 739 mmHg 74%
22:00 -1°C° 0 mm 3 mps 739 mmHg 77%
23:00 -1°C° 0 mm 3 mps 739 mmHg 79%
Show more